Retour au catalogue

ATLAS 5 CENTAUR DEB

ActifHEO
NORAD 44694·DEBRIS·🇺🇸 United States

Lancé Oct 17, 2018 depuis Cape Canaveral Space Force Station

Loading…

Prochains Passages (prochaines 24 heures)

TLE

FraisSource: Space-Track

Époque: Sep 14, 2026, 07:35 UTC

1 44694U 18079BG  26257.31613181 -.00000167  00000-0  00000-0 0  9993
2 44694  13.7202  32.0274 4713143 313.3881  15.9049  1.77404021 48143

Suivez ATLAS 5 CENTAUR DEB en temps réel avec AllMySat

Download on the App Store